Weather History for Lansing, MI

Change the Weather History Date:

Thursday, October 24, 2013

  Actual Average Record
Temperature  
Mean Temperature 38 °F 48 °F  
Max Temperature 46 °F 57 °F 84 °F (1963)
Min Temperature 30 °F 39 °F 15 °F (1869)
Degree Days  
Heating Degree Days 27 17  
Month to date heating degree days 270 330  
Since 1 July heating degree days 461 518  
Cooling Degree Days 0 0  
Month to date cooling degree days 10 4  
Year to date cooling degree days 661 622  
Moisture  
Dew Point 30 °F    
Average Humidity 73    
Maximum Humidity 96    
Minimum Humidity 49    
Precipitation  
Precipitation T in 0.08 in 0.96 in (2010)
Month to date precipitation 1.84 1.97  
Year to date precipitation 35.74 26.56  
Snow  
Snow 0.00 in 0.00 in 1.00 in (1878)
Month to date snowfall T 0.2  
Since 1 July snowfall T 0.2  
Since 1 September snowfall T 0.2  
Snow Depth 0.00 in    
Sea Level Pressure  
Sea Level Pressure 30.05 in    
Wind  
Wind Speed 8 mph (West)    
Max Wind Speed 21 mph    
Max Gust Speed 25 mph    
Visibility 10 miles    
Events      
T = Trace of Precipitation, MM = Missing Value Source: NWS Daily Summary

Daily Weather History Graph

Daily Weather History Graph

Search for Another Location

Airport:

Trip Planner

Search our weather history database for the weather conditions in past years. The results will help you decide how hot, cold, wet, or windy it might be!

Date:

Astronomy

Oct. 24, 2013 Rise Set
Actual Time 8:02 AM EDT 6:41 PM EDT
Civil Twilight 7:33 AM EDT 7:10 PM EDT
Nautical Twilight 7:00 AM EDT 7:43 PM EDT
Astronomical Twilight 6:27 AM EDT 8:16 PM EDT
Moon 11:02 PM EDT (10/24) 1:06 PM EDT (10/24)
Length of Visible Light 11h 36m
Length of Day
10h 38m
Waning Gibbous, 71% of the Moon is Illuminated
Oct 24
Waning Gibbous
Oct 26
Last Quarter
Nov 3
New
Nov 10
First Quarter
Nov 17
Full

Hourly Weather History & Observations

Time (EDT) Temp. Windchill Dew Point Humidity Pressure Visibility Wind Dir Wind Speed Gust Speed Precip Events Conditions
12:53 AM 32.0 °F 25.6 °F 28.0 °F 85% 29.96 in 10.0 mi WSW 6.9 mph - N/A   Clear
1:53 AM 30.9 °F 24.3 °F 28.0 °F 89% 29.96 in 10.0 mi West 6.9 mph - N/A   Clear
2:53 AM 30.9 °F 25.2 °F 28.9 °F 92% 29.96 in 10.0 mi WSW 5.8 mph - N/A   Overcast
3:53 AM 33.1 °F 26.1 °F 30.0 °F 89% 29.96 in 10.0 mi WSW 8.1 mph - N/A   Overcast
4:39 AM 33.8 °F 27.7 °F 30.2 °F 87% 29.95 in 10.0 mi West 6.9 mph - N/A   Overcast
4:53 AM 34.0 °F 28.0 °F 30.9 °F 89% 29.97 in 10.0 mi West 6.9 mph - N/A   Overcast
5:53 AM 34.0 °F 28.8 °F 32.0 °F 92% 29.98 in 10.0 mi West 5.8 mph - N/A   Overcast
6:09 AM 33.8 °F 28.6 °F 32.0 °F 93% 29.96 in 10.0 mi West 5.8 mph - N/A   Overcast
6:53 AM 34.0 °F 28.0 °F 32.0 °F 92% 29.99 in 10.0 mi West 6.9 mph - N/A   Overcast
7:14 AM 33.8 °F 26.4 °F 30.2 °F 87% 29.97 in 10.0 mi WSW 9.2 mph - N/A   Overcast
7:43 AM 33.8 °F 27.0 °F 30.2 °F 87% 29.98 in 10.0 mi WSW 8.1 mph - N/A   Overcast
7:53 AM 34.0 °F 27.2 °F 30.9 °F 89% 30.01 in 10.0 mi West 8.1 mph - N/A   Overcast
8:53 AM 34.0 °F 28.0 °F 32.0 °F 92% 30.02 in 10.0 mi West 6.9 mph - N/A   Overcast
9:53 AM 36.0 °F 29.6 °F 32.0 °F 86% 30.05 in 10.0 mi West 8.1 mph - N/A   Overcast
10:53 AM 39.0 °F 32.3 °F 30.9 °F 73% 30.06 in 10.0 mi West 10.4 mph - N/A   Clear
11:28 AM 41.0 °F 34.7 °F 30.2 °F 65% 30.04 in 10.0 mi West 10.4 mph - N/A   Mostly Cloudy
11:36 AM 41.0 °F 33.9 °F 30.2 °F 65% 30.04 in 10.0 mi West 12.7 mph - N/A   Scattered Clouds
11:49 AM 42.8 °F 36.6 °F 30.2 °F 61% 30.04 in 10.0 mi WNW 11.5 mph - N/A   Mostly Cloudy
11:53 AM 42.1 °F 36.1 °F 30.9 °F 65% 30.06 in 10.0 mi NW 10.4 mph - N/A   Mostly Cloudy
12:14 PM 41.0 °F 38.0 °F 28.4 °F 61% 30.04 in 10.0 mi WNW 4.6 mph - N/A   Scattered Clouds
12:53 PM 43.0 °F 36.8 °F 27.0 °F 53% 30.07 in 10.0 mi WNW 11.5 mph 19.6 mph N/A   Scattered Clouds
1:53 PM 44.1 °F 39.5 °F 27.0 °F 51% 30.06 in 10.0 mi WNW 8.1 mph - N/A   Mostly Cloudy
2:53 PM 44.1 °F 37.1 °F 27.0 °F 51% 30.06 in 10.0 mi WNW 15.0 mph - N/A   Scattered Clouds
3:53 PM 44.1 °F 38.6 °F 28.9 °F 55% 30.08 in 10.0 mi West 10.4 mph - N/A   Partly Cloudy
4:53 PM 41.0 °F 34.7 °F 30.9 °F 67% 30.10 in 10.0 mi NW 10.4 mph - 0.00 in   Overcast
5:53 PM 39.9 °F 35.8 °F 30.9 °F 70% 30.12 in 10.0 mi NW 5.8 mph - N/A   Mostly Cloudy
6:53 PM 37.0 °F 32.4 °F 28.9 °F 73% 30.14 in 10.0 mi West 5.8 mph - N/A   Clear
7:53 PM 36.0 °F 31.1 °F 28.9 °F 76% 30.17 in 10.0 mi West 5.8 mph - N/A   Clear
8:53 PM 35.1 °F 29.3 °F 28.9 °F 78% 30.18 in 10.0 mi West 6.9 mph - N/A   Clear
9:53 PM 34.0 °F 28.0 °F 30.0 °F 85% 30.19 in 10.0 mi WSW 6.9 mph - N/A   Clear
10:53 PM 33.1 °F 27.7 °F 30.0 °F 89% 30.20 in 10.0 mi WSW 5.8 mph - N/A   Clear
11:53 PM 33.1 °F 26.9 °F 30.0 °F 89% 30.21 in 10.0 mi West 6.9 mph - N/A   Clear